Dewpoint
55 56 57 57 58 58 58 58 58 58 58 59 59 59 60 60 61 62 62 63 64 64 65 65 65 68 68 68 68 68 67 67 67 67 67 67 67 67 67 67 67 66 67 66 65 64 64 63 62 61 61 65
54 55 55 55 56 56 56 57 56 56 56 56 57 57 58 59 60 61 62 63 63 64 64 64 64 65 67 67 67 67 67 67 67 67 67 67 67 67 67 67 67 66 66 65 64 63 63 63 62 61 61 65
54 53 53 53 54 54 54 54 54 54 54 54 55 55 56 57 59 59 61 62 62 62 62 63 63 63 65 66 67 67 67 66 67 67 67 67 67 67 67 67 66 66 65 65 64 63 62 62 61 60 61 65
53 53 52 52 52 52 52 52 52 52 53 53 53 54 55 56 57 58 59 61 60 60 61 61 61 61 63 64 66 66 66 67 66 66 66 66 67 67 67 66 66 65 65 64 63 62 62 61 60 63 64 64
53 53 52 53 52 51 51 51 51 51 52 51 53 53 54 55 57 58 59 59 58 59 60 60 60 60 61 63 64 65 65 66 66 66 66 66 66 66 65 65 63 63 63 63 62 61 61 60 63 63 63 63
53 52 51 52 51 51 51 50 50 51 51 51 52 52 53 54 54 55 57 57 56 58 58 59 58 59 60 62 63 63 64 64 65 66 65 66 66 65 64 63 66 64 62 60 61 60 60 63 64 64 64 64
51 50 49 50 50 50 50 49 49 50 50 50 51 51 52 51 53 55 55 55 55 56 57 58 57 57 58 60 61 62 62 62 63 64 65 65 65 64 63 66 66 65 64 64 60 59 62 64 64 61 61 61
48 48 47 47 48 48 47 48 48 48 49 49 49 50 50 50 53 54 54 53 53 54 56 57 56 57 57 58 59 57 61 62 62 62 63 61 60 61 61 60 59 61 61 59 59 59 60 59 58 58 56 57
46 46 45 45 45 46 45 46 46 45 46 47 48 49 48 50 52 53 53 54 54 55 55 56 56 57 57 57 57 55 59 59 60 61 60 60 59 60 59 58 57 57 59 58 56 55 55 56 55 54 54 53
44 44 43 44 43 44 44 44 44 44 44 44 45 46 46 47 49 51 52 53 53 54 54 55 54 55 55 56 56 55 56 56 56 56 56 56 56 55 56 56 54 54 55 55 54 53 52 50 50 49 49 49
43 43 42 42 42 42 41 42 41 41 42 42 43 44 44 44 46 48 49 51 52 52 53 53 53 54 54 55 55 54 55 55 55 54 55 55 54 53 52 52 53 53 52 52 51 49 49 48 47 47 46 46
42 41 41 40 40 41 41 40 40 40 40 41 40 41 41 42 44 46 47 49 50 51 51 52 52 53 53 53 53 53 54 54 54 53 53 52 52 52 51 51 51 51 50 50 49 48 47 47 47 47 46 45
40 40 40 40 39 39 40 39 39 39 39 39 38 39 40 41 42 43 45 48 48 49 50 51 51 51 51 52 51 52 52 53 53 52 52 52 51 51 50 50 49 50 50 49 48 49 47 46 46 45 44 43
39 39 39 39 38 37 38 37 38 38 37 37 37 37 38 39 40 41 42 45 47 48 49 49 50 50 50 50 50 51 51 50 51 51 51 51 50 50 49 48 48 48 47 46 45 45 44 44 43 43 42 41
38 38 37 37 37 36 36 36 36 35 36 36 36 35 37 37 38 38 40 43 45 46 48 48 49 49 49 49 49 49 50 50 50 49 48 48 48 48 47 46 46 45 44 43 42 42 41 41 40 40 40 40
38 37 36 36 35 35 36 35 34 34 34 34 33 35 35 35 36 36 38 40 43 45 46 46 47 48 48 48 49 49 49 49 49 48 48 47 47 46 45 44 43 42 41 40 39 39 39 39 38 39 38 38
37 36 35 34 34 34 34 33 33 32 32 32 32 33 33 34 35 35 35 37 41 43 44 45 46 46 47 48 48 49 49 49 49 48 47 46 46 45 44 43 42 41 39 37 37 37 36 36 36 36 36 35
36 36 35 34 32 33 32 31 30 31 31 30 30 31 32 33 34 34 34 35 38 40 42 44 44 44 45 46 48 48 48 48 47 47 46 45 43 42 42 41 40 39 37 36 36 36 35 35 35 35 34 34
36 35 34 33 32 32 32 31 30 29 29 29 29 29 30 31 32 32 33 34 35 38 39 40 41 42 43 45 47 46 46 47 46 46 45 44 44 43 41 39 38 38 37 36 35 35 36 35 35 34 35 35
36 35 34 33 33 32 33 30 30 29 28 27 27 27 29 29 30 31 31 32 34 35 37 37 38 39 42 44 45 46 45 45 45 45 45 44 44 41 40 39 38 37 36 35 35 35 34 34 34 34 34 33
37 35 34 33 33 33 32 30 29 28 28 27 27 27 27 28 29 30 31 31 33 33 35 35 36 37 39 42 44 45 44 43 44 43 44 42 41 42 41 39 37 36 35 34 34 33 33 33 33 33 33 32
37 36 35 34 33 33 31 30 28 28 27 27 26 27 26 28 27 28 30 30 31 31 33 34 36 38 38 40 42 43 43 43 42 42 42 40 39 40 40 38 37 36 34 34 33 31 31 31 31 31 31 30
37 37 36 36 34 34 33 31 29 28 27 27 26 26 27 27 26 27 29 30 30 31 31 33 37 37 37 38 39 40 41 41 41 41 41 40 38 37 37 37 36 34 34 33 32 31 30 30 30 30 30 31
34 34 35 35 35 34 32 31 29 28 27 26 25 26 26 26 26 27 27 29 29 30 30 31 33 35 36 37 38 38 38 38 39 39 40 39 39 38 36 35 34 33 32 32 31 30 30 29 29 29 29 28
33 33 34 34 33 31 31 30 29 28 27 26 24 25 25 25 24 26 26 27 28 28 28 29 31 32 34 35 36 36 36 37 37 37 38 38 37 37 37 36 35 35 36 35 35 31 32 30 29 29 28 27
31 32 32 32 32 30 30 29 28 27 26 25 26 24 24 23 24 24 24 26 27 27 27 28 29 30 31 32 33 35 35 36 35 36 36 37 37 36 36 35 35 35 37 37 36 36 36 33 30 30 28 28
31 31 32 32 31 29 28 29 29 27 27 25 24 23 23 22 23 23 23 24 27 25 25 26 27 27 29 30 31 33 33 33 33 34 35 36 36 36 36 35 35 34 35 35 35 36 35 35 34 32 29 28
30 30 30 31 31 30 29 27 28 28 26 25 23 22 21 21 21 21 21 22 24 24 23 25 25 26 28 28 29 31 31 31 31 31 32 34 35 35 34 34 34 35 35 34 35 34 33 33 33 33 33 31
30 30 30 30 30 30 29 28 27 25 24 22 22 20 19 18 19 19 19 19 21 22 22 22 23 24 26 27 27 28 29 28 29 29 30 31 33 34 33 33 33 33 34 33 33 33 33 33 32 33 31 32
28 28 28 28 28 26 26 25 24 22 21 20 19 18 18 18 17 17 17 17 17 20 21 19 21 24 25 25 26 26 27 27 28 28 29 29 31 32 33 33 33 33 33 32 32 32 32 33 32 31 32 32
27 27 27 27 27 26 26 23 22 22 21 20 20 18 18 17 17 16 16 16 17 18 19 19 19 21 23 24 24 26 25 25 26 27 28 29 29 30 31 32 32 32 32 32 32 32 32 31 31 32 31 31